Mason City, IA

3:52 PM CDT on April 20, 2018 (GMT -0500)
Mason City Municipal

Weather History for KMCW - August, 2013

Change the Weather History Date:

Thursday, August 29, 2013

  Actual Average Record
Temperature  
Mean Temperature 81 °F 67 °F  
Max Temperature 91 °F 79 °F 97 °F (2012)
Min Temperature 71 °F 56 °F 34 °F (1893)
Degree Days  
Heating Degree Days 0 2  
Month to date heating degree days 18 25  
Since 1 June heating degree days 91 78  
Since 1 July heating degree days 38 34  
Cooling Degree Days 16 4  
Month to date cooling degree days 162 154  
Year to date cooling degree days 570 548  
Since 1 June cooling degree days 533 513  
Growing Degree Days 32 (Base 50)    
Moisture  
Dew Point 73 °F    
Average Humidity 75    
Maximum Humidity 100    
Minimum Humidity 49    
Precipitation  
Precipitation 0.00 in 0.13 in 2.20 in (1982)
Month to date precipitation 2.26 3.79  
Year to date precipitation 33.35 26.11  
Snow  
Snow 0.00 in 0.00 in - ()
Month to date snowfall 0.0 0.0  
Since 1 June snowfall 0.0 0.0  
Since 1 July snowfall 0.0 0.0  
Snow Depth 0.00 in    
Sea Level Pressure  
Sea Level Pressure 30.00 in    
Wind  
Wind Speed 8 mph (South)    
Max Wind Speed 16 mph    
Max Gust Speed 20 mph    
Visibility 5 miles    
Events Fog    
T = Trace of Precipitation, MM = Missing Value Source: NWS Daily Summary

Daily Weather History Graph

Daily Weather History Graph

Search for Another Location

Airport or City:

Astronomy

Aug. 29, 2013 Rise Set
Actual Time 6:34 AM CDT 7:52 PM CDT
Civil Twilight 6:05 AM CDT 8:22 PM CDT
Nautical Twilight 5:29 AM CDT 8:57 PM CDT
Astronomical Twilight 4:52 AM CDT 9:34 PM CDT
Moon 12:21 AM CDT (8/29) 3:27 PM CDT (8/29)
Length of Visible Light 14h 17m
Length of Day
13h 18m
Last Quarter, 38% of the Moon is Illuminated
Aug 29
Last Quarter
Sep 5
New
Sep 12
First Quarter
Sep 19
Full
Sep 26
Last Quarter

Hourly Weather History & Observations

Time (CDT) Temp. Heat Index Dew Point Humidity Pressure Visibility Wind Dir Wind Speed Gust Speed Precip Events Conditions
12:06 AM 77.0 °F - 75.2 °F 94% 30.04 in 6.0 mi SSE 9.2 mph - N/A   Mostly Cloudy
12:53 AM 75.9 °F - 75.0 °F 97% 30.00 in 5.0 mi SE 6.9 mph - N/A   Overcast
1:23 AM 75.2 °F - 75.2 °F 100% 30.05 in 5.0 mi SSE 6.9 mph - N/A   Scattered Clouds
1:53 AM 75.0 °F - 75.0 °F 100% 30.00 in 4.0 mi SSE 5.8 mph - N/A   Clear
2:33 AM 73.4 °F - 73.4 °F 100% 30.04 in 3.0 mi SSE 3.5 mph - N/A   Partly Cloudy
2:53 AM 73.9 °F - 73.9 °F 100% 30.00 in 3.0 mi SSE 4.6 mph - N/A   Scattered Clouds
3:01 AM 73.4 °F - 73.4 °F 100% 30.05 in 3.0 mi SSE 4.6 mph - N/A   Mostly Cloudy
3:34 AM 75.2 °F - 75.2 °F 100% 30.05 in 3.0 mi SSE 9.2 mph - N/A   Overcast
3:41 AM 75.2 °F - 75.2 °F 100% 30.04 in 2.0 mi SSE 8.1 mph - N/A   Overcast
3:49 AM 75.2 °F - 75.2 °F 100% 30.04 in 1.2 mi SSE 9.2 mph - N/A   Overcast
3:53 AM 75.0 °F - 75.0 °F 100% 30.00 in 1.0 mi SSE 9.2 mph - N/A   Overcast
4:00 AM 75.2 °F - 75.2 °F 100% 30.05 in 0.8 mi SSE 10.4 mph - N/A   Mist
4:31 AM 75.2 °F - 75.2 °F 100% 30.04 in 0.2 mi South 9.2 mph - N/A Fog Fog
4:51 AM 75.2 °F - 75.2 °F 100% 30.04 in 0.5 mi South 5.8 mph - N/A Fog Fog
4:53 AM 75.0 °F - 75.0 °F 100% 29.99 in 0.5 mi South 5.8 mph - N/A Fog Fog
5:03 AM 73.4 °F - 73.4 °F 100% 30.04 in 2.0 mi South 6.9 mph - N/A   Overcast
5:12 AM 73.4 °F - 73.4 °F 100% 30.04 in 3.0 mi South 8.1 mph - N/A   Overcast
5:53 AM 73.0 °F - 73.0 °F 100% 29.99 in 3.0 mi South 5.8 mph - N/A   Overcast
6:45 AM 73.4 °F - 73.4 °F 100% 30.05 in 2.0 mi SSE 4.6 mph - N/A   Overcast
6:53 AM 73.0 °F - 73.0 °F 100% 30.01 in 2.0 mi South 5.8 mph - N/A   Overcast
7:05 AM 73.4 °F - 73.4 °F 100% 30.05 in 1.8 mi South 5.8 mph - N/A   Overcast
7:23 AM 73.4 °F - 73.4 °F 100% 30.06 in 0.8 mi South 5.8 mph - N/A   Overcast
7:38 AM 73.4 °F - 73.4 °F 100% 30.06 in 1.2 mi SSE 6.9 mph - N/A   Overcast
7:53 AM 73.9 °F - 73.0 °F 97% 30.02 in 1.8 mi South 5.8 mph - N/A   Overcast
8:00 AM 73.4 °F - 73.4 °F 100% 30.06 in 2.5 mi South 6.9 mph - N/A   Mostly Cloudy
8:20 AM 75.2 °F - 73.4 °F 94% 30.06 in 4.0 mi South 6.9 mph - N/A   Scattered Clouds
8:53 AM 78.1 °F - 73.0 °F 84% 30.01 in 8.0 mi South 4.6 mph - N/A   Clear
9:53 AM 81.0 °F 85.8 °F 73.0 °F 77% 30.01 in 10.0 mi South 9.2 mph - N/A   Clear
10:53 AM 84.9 °F 90.7 °F 72.0 °F 65% 30.01 in 10.0 mi South 8.1 mph - N/A   Clear
11:53 AM 88.0 °F 93.8 °F 71.1 °F 57% 29.99 in 10.0 mi SSW 10.4 mph - N/A   Clear
12:53 PM 89.1 °F 93.7 °F 69.1 °F 52% 29.98 in 10.0 mi SSW 9.2 mph - N/A   Clear
1:53 PM 90.0 °F 95.4 °F 70.0 °F 52% 29.97 in 10.0 mi SSW 11.5 mph 17.3 mph N/A   Clear
2:53 PM 91.0 °F 97.6 °F 71.1 °F 52% 29.95 in 10.0 mi SSW 12.7 mph - N/A   Scattered Clouds
3:53 PM 91.0 °F 96.6 °F 70.0 °F 50% 29.94 in 10.0 mi South 10.4 mph - N/A   Partly Cloudy
4:53 PM 91.0 °F 97.6 °F 71.1 °F 52% 29.92 in 10.0 mi South 11.5 mph - N/A   Partly Cloudy
5:53 PM 89.1 °F 96.0 °F 72.0 °F 57% 29.91 in 10.0 mi South 9.2 mph - N/A   Clear
6:53 PM 86.0 °F 93.0 °F 73.0 °F 65% 29.90 in 10.0 mi SSE 9.2 mph - N/A   Clear
7:53 PM 80.1 °F 84.2 °F 73.0 °F 79% 29.90 in 10.0 mi South 5.8 mph - N/A   Clear
8:53 PM 77.0 °F - 73.0 °F 88% 29.91 in 10.0 mi South 4.6 mph - N/A   Clear
9:53 PM 73.9 °F - 72.0 °F 93% 29.91 in 10.0 mi South 5.8 mph - N/A   Clear
10:53 PM 73.9 °F - 71.1 °F 91% 29.90 in 10.0 mi South 6.9 mph - N/A   Clear
11:53 PM 73.0 °F - 71.1 °F 93% 29.90 in 10.0 mi South 5.8 mph - N/A   Clear